sat.trackr.live / text

‹ back to catalog

2026-134A

NORAD 69538 · 2026-134A

PAYLOAD ACTIVE UNKNOWN

§ Identity

Operator
Country
PRC
Launch date
2026-06-15
Launch site
JSC
Launch vehicle
Mass (kg)
RCS (m²)

External: N2YO · Heavens-Above · Gunter

§ Orbital elements

Epoch: 2026-09-20T03:24:02.651904Z

Period
95.44 min
Inclination
97.6929°
Eccentricity
0.0014931
Mean motion
15.08737128 rev/d
Perigee alt
529.7 km
Apogee alt
550.4 km
Semi-major
6,918.2 km
B*
2.1929e-4
RAAN
333.5452°
Arg perigee
311.0380°
Mean anomaly
48.9557°
Rev number
1,463

§ Raw data

2026-134A1 69538U 26134A   26263.14169736  .00003384  00000+0  21929-3 0  99962 69538  97.6929 333.5452 0014931 311.0380  48.9557 15.08737128 14638

JSON: /api/v1/satellites/69538 · /tle

For live sub-satellite position, see the globe view (requires WebGL).

§ Visibility from observer

Set your observer location to see the next 7 days of passes ≥ 10°. The values pass through the URL so the page stays shareable.

No JS? Fill the form by hand. The geolocation button needs JavaScript.